Location: Boiro
(42.6475°N, 8.8834°W)
Time: 20:37:31
(UTC+01:00)

Vanguard 1 - Pass Details

Date: 06 December 2021
Orbit: 652 x 3830 km, 34.2° (Epoch: 19 January)

Event Time Altitude Azimuth Distance (km) Brightness Sun altitude
Rises 21:46:14 0° 190° (S) 6,094 14.2 -40.4°
Reaches altitude 10° 21:51:03 10° 177° (S) 5,554 13.8 -41.3°
Enters shadow 21:55:48 18° 162° (SSE) 5,255 13.5 -42.2°
Maximum altitude 22:04:07 25° 131° (SE) 5,325 - -43.7°
Drops below altitude 10° 22:20:06 10° 87° (E) 6,939 - -46.6°
Sets 22:27:04 0° 76° (ENE) 7,906 - -47.8°
